PROBA-V (39159 NORAD) Tracking and Keplerian Element Data

This shows tracking and keplerian element data for the satellite.

Feedback or suggestion? Click here.




ElementValue
Catalog39159
NamePROBA-V
Epoch Orbit28754
Epoch Day323.13354532
Epoch Year2018
RAAN30.3641
Inclination98.5412
Eccentricity0.0003646
Argument of Perigee311.5993
Mean Anonmoly48.4874
Mean Motion14.22966953
Decay Rate-2.2E-07
L11 39159U 13021A 18323.13354532 -.00000022 00000-0 91448-5 0 9993
L22 39159 98.5412 30.3641 0003646 311.5993 48.4874 14.22966953287543

Live tracking and technical data element details for PROBA-V (NORAD 39159). PROBA-V can be tracked NOW for your location showing map with azimuth and elevation plus other details from your city location.

Track the satellite on the map from your city or location and see movement details for azimuth, elevation, latitude, longitude, range, height, and movement on the map or in text.







IsCatalogInMostPopularTable: catalog: 39159, numindb: 79
Update: records affected: 1



GetName: 39159 PROBA-V

Hit Count: updated at: Mon, 19 Nov 2018 23:42:20 GMT